Location: Newark
(49.8348°N, 24.0280°E)
Time: 02:54:04
(UTC+00:00)

Explorer 7 - All Passes

Search period start: 18 January 2020 00:00
Search period end: 28 January 2020 00:00
Orbit: 485 x 679 km, 50.3° (Epoch: 17 January)

Date Brightness Start Highest point End Pass type
(mag) Time Alt. Az. Time Alt. Az. Time Alt. Az.
18 Jan - 01:22:08 10° WSW 01:25:55 75° SSE 01:29:54 10° E visible
18 Jan - 03:02:33 10° W 03:06:28 84° N 03:10:35 10° E visible
18 Jan - 04:42:59 10° W 04:46:54 52° SSW 04:51:02 10° SE visible
18 Jan - 06:24:19 10° WSW 06:26:50 16° SW 06:29:26 10° S daylight
18 Jan - 23:47:10 10° SW 23:50:36 35° SSE 23:54:09 10° E night (unlit)
19 Jan - 01:27:02 10° WSW 01:30:50 88° S 01:34:50 10° E visible
19 Jan - 03:07:30 10° W 03:11:24 89° SSW 03:15:32 10° E visible
19 Jan - 04:48:00 10° W 04:51:44 38° SSW 04:55:41 10° SE visible
19 Jan - 06:31:19 10° SW 06:31:29 10° SW 06:31:40 10° SW daylight
19 Jan - 22:14:00 10° SSE 22:15:39 13° SE 22:17:20 10° ESE night (unlit)
19 Jan - 23:51:48 10° SW 23:55:25 48° SSE 23:59:10 10° E night (unlit)
20 Jan - 01:31:59 10° W 01:35:48 84° N 01:39:48 10° E visible
20 Jan - 03:12:26 10° W 03:16:20 77° SSW 03:20:28 10° ESE visible
20 Jan - 04:53:05 10° W 04:56:32 28° SSW 05:00:09 10° SSE visible
20 Jan - 22:17:38 10° S 22:20:20 19° SE 22:23:03 10° E night (unlit)
20 Jan - 23:56:34 10° WSW 00:00:18 64° SSE 00:04:08 10° E night (unlit)
21 Jan - 01:36:57 10° W 01:40:46 82° N 01:44:46 10° E visible
21 Jan - 03:17:23 10° W 03:21:15 61° SSW 03:25:19 10° ESE visible
21 Jan - 04:58:21 10° W 05:01:17 19° SW 05:04:19 10° S visible
21 Jan - 22:21:51 10° SSW 22:25:04 27° SSE 22:28:19 10° E night (unlit)
22 Jan - 00:01:27 10° WSW 00:05:12 80° SSE 00:09:05 10° E night (unlit)
22 Jan - 01:41:55 10° W 01:45:44 85° N 01:49:44 10° E visible
22 Jan - 03:22:21 10° W 03:26:07 46° SSW 03:30:04 10° SE visible
22 Jan - 05:04:04 10° WSW 05:05:59 13° SW 05:07:55 10° SSW visible
22 Jan - 22:26:21 10° SW 22:29:51 38° SSE 22:33:24 10° E night (unlit)
23 Jan - 00:06:22 10° W 00:10:08 89° N 00:14:02 10° E night (unlit)
23 Jan - 01:46:51 10° W 01:50:41 85° S 01:54:41 10° ESE visible
23 Jan - 03:27:23 10° W 03:30:57 34° SSW 03:34:39 10° SE visible
23 Jan - 20:52:45 10° S 20:54:51 14° SE 20:56:57 10° ESE night (unlit)
23 Jan - 22:31:02 10° SW 22:34:42 53° SSE 22:38:24 10° E night (unlit)
24 Jan - 00:11:19 10° W 00:15:06 83° N 00:18:59 10° E night (unlit)
24 Jan - 01:51:48 10° W 01:55:36 72° SSW 01:59:34 10° ESE visible
24 Jan - 03:32:32 10° W 03:35:43 24° SW 03:39:02 10° SSE visible
24 Jan - 20:56:38 10° SSW 20:59:33 21° SE 21:02:27 10° E night (unlit)
24 Jan - 22:35:51 10° WSW 22:39:34 69° SSE 22:43:21 10° E night (unlit)
25 Jan - 00:16:16 10° W 00:20:03 82° N 00:23:57 10° E night (unlit)
25 Jan - 01:56:44 10° W 02:00:30 56° SSW 02:04:24 10° SE visible
25 Jan - 03:37:55 10° W 03:40:26 16° SW 03:43:02 10° S visible
25 Jan - 21:00:57 10° SSW 21:04:18 30° SSE 21:07:38 10° E night (unlit)
25 Jan - 22:40:44 10° WSW 22:44:29 84° SSE 22:48:18 10° E night (unlit)
26 Jan - 00:21:13 10° W 00:25:01 88° N 00:28:55 10° E night (unlit)
26 Jan - 02:01:43 10° W 02:05:21 41° SSW 02:09:06 10° SE night (unlit)
26 Jan - 03:44:11 10° WSW 03:45:07 11° SW 03:46:03 10° SSW visible
26 Jan - 19:28:26 10° SSE 19:29:22 11° SE 19:30:19 10° ESE night (unlit)
26 Jan - 21:05:31 10° SW 21:09:06 43° SSE 21:12:41 10° E night (unlit)
26 Jan - 22:45:40 10° W 22:49:26 86° N 22:53:15 10° E night (unlit)
27 Jan - 00:26:11 10° W 00:29:57 81° SSW 00:33:51 10° ESE night (unlit)
27 Jan - 02:06:47 10° W 02:10:08 29° SSW 02:13:38 10° SSE night (unlit)
27 Jan - 19:31:33 10° S 19:34:02 17° SE 19:36:29 10° E night (unlit)
27 Jan - 21:10:15 10° WSW 21:13:58 58° SSE 21:17:40 10° E night (unlit)
27 Jan - 22:50:38 10° W 22:54:23 82° N 22:58:12 10° E night (unlit)
